TimeCDT,TemperatureF,Dew PointF,Humidity,Sea Level PressureIn,VisibilityMPH,Wind Direction,Wind SpeedMPH,Gust SpeedMPH,PrecipitationIn,Events,Conditions,WindDirDegrees,DateUTC
12:15 AM,79.2,57.9,48,29.89,10.0,South,12.7,-,N/A,,Clear,190,2013-09-10 05:15:00
12:35 AM,79.0,58.3,49,29.90,10.0,SSW,13.8,-,N/A,,Clear,200,2013-09-10 05:35:00
12:55 AM,78.8,59.0,51,29.90,10.0,South,11.5,-,N/A,,Clear,190,2013-09-10 05:55:00
1:15 AM,77.9,59.5,53,29.90,10.0,South,11.5,-,N/A,,Clear,190,2013-09-10 06:15:00
1:35 AM,77.2,59.9,55,29.91,10.0,South,9.2,-,N/A,,Clear,190,2013-09-10 06:35:00
1:55 AM,76.6,59.9,56,29.91,10.0,South,8.1,-,N/A,,Clear,180,2013-09-10 06:55:00
2:15 AM,76.3,60.3,57,29.92,10.0,South,4.6,-,N/A,,Clear,180,2013-09-10 07:15:00
2:35 AM,75.6,60.4,59,29.92,10.0,SSE,8.1,-,N/A,,Clear,160,2013-09-10 07:35:00
2:55 AM,75.9,60.6,59,29.93,10.0,SSE,5.8,-,N/A,,Clear,150,2013-09-10 07:55:00
3:15 AM,74.3,60.8,63,29.92,10.0,ESE,4.6,-,N/A,,Clear,120,2013-09-10 08:15:00
3:35 AM,72.7,62.2,70,29.92,10.0,ESE,3.5,-,N/A,,Clear,120,2013-09-10 08:35:00
3:55 AM,72.7,62.4,70,29.93,10.0,SE,3.5,-,N/A,,Clear,130,2013-09-10 08:55:00
4:15 AM,72.1,62.6,72,29.93,10.0,SSE,3.5,-,N/A,,Clear,150,2013-09-10 09:15:00
4:35 AM,70.7,63.1,77,29.93,10.0,SSE,5.8,-,N/A,,Clear,160,2013-09-10 09:35:00
4:55 AM,70.9,63.1,76,29.93,10.0,SSE,5.8,-,N/A,,Scattered Clouds,150,2013-09-10 09:55:00
5:15 AM,70.9,63.1,76,29.93,10.0,SSE,5.8,-,N/A,,Mostly Cloudy,150,2013-09-10 10:15:00
5:35 AM,71.4,62.8,74,29.93,10.0,SSE,5.8,-,N/A,,Scattered Clouds,160,2013-09-10 10:35:00
5:55 AM,71.8,62.6,73,29.94,10.0,South,6.9,-,N/A,,Scattered Clouds,170,2013-09-10 10:55:00
6:15 AM,72.1,61.9,70,29.94,10.0,South,8.1,-,N/A,,Clear,180,2013-09-10 11:15:00
6:55 AM,72.5,61.3,68,29.94,10.0,SSE,6.9,-,N/A,,Scattered Clouds,150,2013-09-10 11:55:00
7:15 AM,71.4,62.1,72,29.95,10.0,SSE,4.6,-,N/A,,Clear,160,2013-09-10 12:15:00
7:35 AM,71.8,61.9,71,29.95,10.0,SSE,6.9,-,N/A,,Clear,160,2013-09-10 12:35:00
7:55 AM,73.4,61.5,66,29.96,10.0,South,9.2,-,N/A,,Clear,170,2013-09-10 12:55:00
8:15 AM,74.8,61.2,62,29.96,10.0,South,9.2,-,N/A,,Clear,180,2013-09-10 13:15:00
8:35 AM,75.7,61.7,62,29.96,10.0,South,9.2,-,N/A,,Clear,190,2013-09-10 13:35:00
8:55 AM,77.0,61.9,59,29.97,10.0,South,9.2,-,N/A,,Clear,180,2013-09-10 13:55:00
9:15 AM,78.8,62.4,57,29.97,10.0,South,6.9,-,N/A,,Scattered Clouds,190,2013-09-10 14:15:00
9:35 AM,79.0,61.5,55,29.97,10.0,SSW,11.5,-,N/A,,Scattered Clouds,200,2013-09-10 14:35:00
9:55 AM,81.7,61.7,51,29.97,10.0,SSW,9.2,-,N/A,,Scattered Clouds,200,2013-09-10 14:55:00
10:15 AM,81.3,63.3,54,29.98,10.0,SSW,9.2,-,N/A,,Scattered Clouds,200,2013-09-10 15:15:00
10:35 AM,85.3,61.9,45,29.98,10.0,SW,13.8,23.0,N/A,,Clear,220,2013-09-10 15:35:00
10:55 AM,86.0,62.8,46,29.99,10.0,SW,9.2,-,N/A,,Clear,230,2013-09-10 15:55:00
11:15 AM,87.3,62.2,43,29.99,10.0,SW,15.0,18.4,N/A,,Clear,220,2013-09-10 16:15:00
11:35 AM,87.3,62.4,43,30.00,10.0,SW,12.7,-,N/A,,Clear,230,2013-09-10 16:35:00
11:55 AM,88.7,62.2,41,29.99,10.0,SW,11.5,18.4,N/A,,Scattered Clouds,230,2013-09-10 16:55:00
12:15 PM,89.6,62.8,41,30.00,10.0,SSW,12.7,18.4,N/A,,Scattered Clouds,200,2013-09-10 17:15:00
12:35 PM,90.9,63.0,39,29.99,10.0,SSW,16.1,19.6,N/A,,Clear,200,2013-09-10 17:35:00
12:55 PM,91.6,62.8,38,29.99,10.0,SSW,15.0,-,N/A,,Clear,200,2013-09-10 17:55:00
1:15 PM,92.3,62.2,37,29.99,10.0,SSW,16.1,-,N/A,,Clear,200,2013-09-10 18:15:00
1:35 PM,93.4,62.8,36,29.99,10.0,SSW,17.3,21.9,N/A,,Clear,210,2013-09-10 18:35:00
1:55 PM,94.1,62.6,35,29.99,10.0,SSW,16.1,20.7,N/A,,Clear,210,2013-09-10 18:55:00
2:15 PM,94.3,62.4,35,29.97,10.0,SSW,18.4,23.0,N/A,,Clear,200,2013-09-10 19:15:00
2:35 PM,94.8,61.9,33,29.97,10.0,SW,15.0,-,N/A,,Clear,220,2013-09-10 19:35:00
2:55 PM,95.7,61.9,32,29.96,10.0,SSW,18.4,-,N/A,,Clear,210,2013-09-10 19:55:00
3:15 PM,95.9,61.3,32,29.96,10.0,SW,16.1,23.0,N/A,,Clear,220,2013-09-10 20:15:00
3:35 PM,95.7,60.8,31,29.95,10.0,SSW,18.4,23.0,N/A,,Clear,200,2013-09-10 20:35:00
3:55 PM,96.3,61.0,31,29.95,10.0,SSW,18.4,27.6,N/A,,Clear,200,2013-09-10 20:55:00
4:15 PM,95.7,62.1,33,29.95,10.0,SSW,17.3,24.2,N/A,,Clear,210,2013-09-10 21:15:00
4:35 PM,94.1,62.6,35,29.94,10.0,South,15.0,21.9,N/A,,Scattered Clouds,180,2013-09-10 21:35:00
4:55 PM,95.4,61.0,32,29.93,10.0,South,17.3,25.3,N/A,,Clear,190,2013-09-10 21:55:00
5:15 PM,95.2,60.8,32,29.93,10.0,South,17.3,23.0,N/A,,Clear,190,2013-09-10 22:15:00
5:35 PM,94.6,60.8,32,29.93,10.0,South,16.1,20.7,N/A,,Clear,190,2013-09-10 22:35:00
5:55 PM,94.1,61.0,33,29.93,10.0,South,13.8,-,N/A,,Clear,190,2013-09-10 22:55:00
6:15 PM,93.0,61.2,34,29.94,10.0,SSW,11.5,-,N/A,,Clear,200,2013-09-10 23:15:00
6:35 PM,89.8,61.5,39,29.94,10.0,South,9.2,-,N/A,,Clear,190,2013-09-10 23:35:00
6:55 PM,88.0,61.9,41,29.94,10.0,South,9.2,-,N/A,,Clear,190,2013-09-10 23:55:00
7:15 PM,86.9,62.6,44,29.95,10.0,South,8.1,-,N/A,,Clear,190,2013-09-11 00:15:00
7:35 PM,86.0,62.6,45,29.95,10.0,South,9.2,-,N/A,,Clear,190,2013-09-11 00:35:00
7:55 PM,85.3,62.8,47,29.95,10.0,SW,6.9,-,N/A,,Clear,230,2013-09-11 00:55:00
8:15 PM,84.4,63.5,49,29.97,10.0,Calm,Calm,-,N/A,,Scattered Clouds,0,2013-09-11 01:15:00
8:35 PM,80.8,65.3,59,29.98,10.0,North,4.6,-,N/A,,Mostly Cloudy,360,2013-09-11 01:35:00
8:55 PM,80.6,64.8,58,29.99,10.0,NNE,4.6,-,N/A,,Mostly Cloudy,30,2013-09-11 01:55:00
9:15 PM,80.8,65.3,59,29.99,10.0,East,4.6,-,N/A,,Mostly Cloudy,80,2013-09-11 02:15:00
9:35 PM,79.7,65.1,61,30.00,10.0,SE,4.6,-,N/A,,Scattered Clouds,140,2013-09-11 02:35:00
9:55 PM,81.5,64.4,56,30.00,10.0,South,5.8,-,N/A,,Mostly Cloudy,170,2013-09-11 02:55:00
10:15 PM,80.2,65.5,61,30.02,10.0,North,9.2,-,N/A,,Mostly Cloudy,10,2013-09-11 03:15:00
10:35 PM,84.6,62.1,47,30.03,10.0,Calm,Calm,-,N/A,,Overcast,0,2013-09-11 03:35:00
10:55 PM,79.7,66.7,64,30.06,10.0,North,5.8,-,N/A,,Overcast,360,2013-09-11 03:55:00
11:15 PM,78.6,68.2,70,30.05,10.0,NE,4.6,-,N/A,,Overcast,40,2013-09-11 04:15:00
11:35 PM,77.0,69.6,78,30.06,10.0,NNW,9.2,-,N/A,,Scattered Clouds,330,2013-09-11 04:35:00
11:55 PM,74.8,71.6,90,30.06,10.0,North,6.9,-,N/A,,Scattered Clouds,360,2013-09-11 04:55:00